Date String (YYYY-MM-DD hh:mm:ss) UTC,Instrument flags,Ambient pressure (hPa),Sample flow (lpm),Bypass flow (lpm),Sample temperature (°C),Ambient temperature (°C),ASC tube jacket temperature (°C),LED temperature (°C),Box temperature (°C),Sample RH (%),Span deviation,Mass concentration (μg/m³),Mass concentration (μg/m³),Mass concentration (μg/m³)
DateTimeUTC,F1_M11,P_M11,Q1_M11,Q2_M11,T1_M11,T2_M11,T3_M11,T4_M11,T5_M11,U1_M11,ZSPAN_M11,X0_M11,X2_M11,X1_M11
2021-10-19 13:00:00,,0819.2,5.00,0.00,27.7,26.8,00.0,36.9,29.5,12.8,0000.0,0012.42,0004.59,0003.17
2021-10-19 13:01:00,,0819.2,5.00,0.00,27.7,26.8,00.0,36.9,29.5,12.7,0000.0,0013.09,0004.63,0003.16
2021-10-19 13:02:00,,0819.2,5.00,0.00,27.7,26.8,00.0,36.9,29.5,12.7,0000.0,0013.70,0004.69,0003.15
2021-10-19 13:03:00,,0819.2,5.00,0.00,27.7,26.8,00.0,36.8,29.5,12.8,0000.0,0013.99,0004.66,0003.13
2021-10-19 13:04:00,,0819.1,5.00,0.00,27.7,26.8,00.0,36.8,29.5,12.7,0000.0,0014.08,0004.64,0003.12
2021-10-19 13:05:00,,0819.2,5.00,0.00,27.7,26.8,00.0,36.8,29.5,12.7,0000.0,0013.87,0004.64,0003.11
2021-10-19 13:06:00,,0819.2,5.00,0.00,27.7,26.8,00.0,36.8,29.5,12.8,0000.0,0013.56,0004.58,0003.09
2021-10-19 13:07:00,,0819.2,5.01,0.00,27.7,26.8,00.0,36.8,29.5,12.8,0000.0,0013.86,0004.67,0003.12
2021-10-19 13:08:00,,0819.2,4.98,0.00,27.7,26.8,00.0,36.9,29.5,12.7,0000.0,0013.88,0004.70,0003.12
2021-10-19 13:09:00,,0819.2,5.00,0.00,27.7,26.8,00.0,36.9,29.5,12.6,0000.0,0014.81,0004.73,0003.13
2021-10-19 13:10:00,,0819.2,5.00,0.00,27.7,26.8,00.0,36.9,29.5,12.6,0000.0,0016.04,0004.77,0003.13
2021-10-19 13:11:00,,0819.2,5.01,0.00,27.7,26.8,00.0,36.9,29.5,12.6,0000.0,0017.20,0004.77,0003.13
2021-10-19 13:12:00,,0819.2,4.99,0.00,27.7,26.8,00.0,36.9,29.5,12.6,0000.0,0016.80,0004.73,0003.14
2021-10-19 13:13:00,,0819.1,5.01,0.00,27.7,26.8,00.0,36.9,29.5,12.6,0000.0,0016.76,0004.65,0003.13
2021-10-19 13:14:00,,0819.1,5.00,0.00,27.8,26.8,00.0,36.9,29.6,12.7,0000.0,0016.00,0004.63,0003.14
2021-10-19 13:15:00,,0819.1,5.00,0.00,27.8,26.8,00.0,36.9,29.6,12.9,0000.0,0016.03,0004.67,0003.16
2021-10-19 13:16:00,,0819.2,5.00,0.00,27.8,26.8,00.0,36.9,29.6,12.9,0000.0,0016.26,0004.67,0003.17
2021-10-19 13:17:00,,0819.1,5.00,0.00,27.8,26.8,00.0,36.9,29.6,12.8,0000.0,0015.97,0004.67,0003.17
2021-10-19 13:18:00,,0819.2,5.00,0.00,27.8,26.8,00.0,36.9,29.6,12.8,0000.0,0015.77,0004.66,0003.17
2021-10-19 13:19:00,,0819.2,5.00,0.00,27.8,26.8,00.0,36.9,29.5,12.9,0000.0,0016.46,0004.67,0003.16
2021-10-19 13:20:00,,0819.2,4.99,0.00,27.8,26.8,00.0,36.9,29.6,12.8,0000.0,0015.66,0004.68,0003.16
2021-10-19 13:21:00,,0819.3,5.01,0.00,27.8,26.8,00.0,36.9,29.6,12.7,0000.0,0014.48,0004.68,0003.17
2021-10-19 13:22:00,,0819.3,5.00,0.00,27.8,26.8,00.0,36.9,29.6,12.7,0000.0,0013.71,0004.77,0003.18
2021-10-19 13:23:00,,0819.3,5.00,0.00,27.8,26.9,00.0,36.9,29.6,12.9,0000.0,0015.55,0004.85,0003.18
2021-10-19 13:24:00,,0819.3,5.01,0.00,27.8,26.9,00.0,36.9,29.6,12.9,0000.0,0015.42,0004.89,0003.18
2021-10-19 13:25:00,,0819.3,4.99,0.00,27.8,26.8,00.0,36.9,29.6,12.7,0000.0,0016.56,0004.91,0003.18
2021-10-19 13:26:00,,0819.3,5.01,0.00,27.8,26.8,00.0,36.9,29.6,12.7,0000.0,0017.17,0004.90,0003.17
2021-10-19 13:27:00,,0819.2,5.01,0.00,27.8,26.8,00.0,36.9,29.6,12.7,0000.0,0017.19,0004.88,0003.15
2021-10-19 13:28:00,,0819.2,5.01,0.00,27.8,26.9,00.0,36.9,29.6,12.7,0000.0,0017.65,0004.94,0003.13
2021-10-19 13:29:00,,0819.3,4.99,0.00,27.8,26.9,00.0,36.9,29.6,12.6,0000.0,0017.66,0004.89,0003.12
2021-10-19 13:30:00,,0819.2,4.99,0.00,27.8,26.9,00.0,36.9,29.6,12.7,0000.0,0017.10,0004.84,0003.10
2021-10-19 13:31:00,,0819.3,5.00,0.00,27.8,26.9,00.0,36.9,29.6,12.8,0000.0,0017.47,0004.82,0003.08
2021-10-19 13:32:00,,0819.2,5.01,0.00,27.8,26.9,00.0,36.9,29.6,12.9,0000.0,0018.33,0004.81,0003.04
2021-10-19 13:33:00,,0819.3,5.00,0.00,27.8,26.9,00.0,36.9,29.6,12.9,0000.0,0017.63,0004.70,0003.00
2021-10-19 13:34:00,,0819.3,4.99,0.00,27.8,26.9,00.0,36.9,29.6,12.7,0000.0,0015.62,0004.66,0002.98
2021-10-19 13:35:00,,0819.3,5.00,0.00,27.8,26.9,00.0,36.9,29.6,12.6,0000.0,0014.88,0004.65,0002.98
2021-10-19 13:36:00,,0819.2,5.02,0.00,27.8,26.9,00.0,36.9,29.6,12.5,0000.0,0014.00,0004.64,0002.95
2021-10-19 13:37:00,,0819.3,5.01,0.00,27.8,26.9,00.0,36.9,29.6,12.5,0000.0,0014.02,0004.63,0002.95
2021-10-19 13:38:00,,0819.2,4.99,0.00,27.8,26.9,00.0,36.9,29.6,12.6,0000.0,0014.28,0004.60,0002.96
2021-10-19 13:39:00,,0819.3,5.01,0.00,27.8,26.9,00.0,36.9,29.6,12.8,0000.0,0013.76,0004.51,0002.97
2021-10-19 13:40:00,,0819.3,5.00,0.00,27.8,26.9,00.0,36.9,29.6,12.7,0000.0,0013.56,0004.53,0002.97
2021-10-19 13:41:00,,0819.3,5.00,0.00,27.8,26.9,00.0,36.9,29.6,12.6,0000.0,0013.45,0004.55,0002.98
2021-10-19 13:42:00,,0819.3,5.00,0.00,27.8,26.9,00.0,36.9,29.6,12.6,0000.0,0014.70,0004.56,0002.99
2021-10-19 13:43:00,,0819.3,5.00,0.00,27.8,26.9,00.0,36.9,29.6,12.7,0000.0,0014.44,0004.60,0002.99
2021-10-19 13:44:00,,0819.3,4.99,0.00,27.8,26.9,00.0,36.9,29.6,12.7,0000.0,0014.36,0004.59,0002.98
2021-10-19 13:45:00,,0819.3,5.00,0.00,27.8,26.9,00.0,36.9,29.6,12.8,0000.0,0014.53,0004.62,0002.99
2021-10-19 13:46:00,,0819.3,5.01,0.00,27.8,26.9,00.0,36.9,29.6,12.7,0000.0,0014.91,0004.58,0002.99
2021-10-19 13:47:00,,0819.3,5.00,0.00,27.8,26.9,00.0,36.9,29.6,12.7,0000.0,0016.04,0004.58,0002.99
2021-10-19 13:48:00,,0819.3,5.00,0.00,27.8,26.9,00.0,36.9,29.6,12.7,0000.0,0016.26,0004.59,0002.98
2021-10-19 13:49:00,,0819.3,5.00,0.00,27.8,26.9,00.0,36.9,29.6,12.7,0000.0,0016.42,0004.61,0002.96
2021-10-19 13:50:00,,0819.3,5.00,0.00,27.8,26.9,00.0,36.9,29.6,12.8,0000.0,0016.81,0004.66,0002.97
2021-10-19 13:51:00,,0819.3,5.01,0.00,27.8,26.9,00.0,36.9,29.6,12.8,0000.0,0017.12,0004.66,0002.96
2021-10-19 13:52:00,,0819.3,5.01,0.00,27.8,26.9,00.0,36.9,29.7,12.7,0000.0,0016.99,0004.63,0002.93
2021-10-19 13:53:00,,0819.3,5.00,0.00,27.8,27.0,00.0,36.9,29.7,12.8,0000.0,0015.73,0004.67,0002.93
2021-10-19 13:54:00,,0819.3,5.00,0.00,27.9,27.0,00.0,37.0,29.7,12.8,0000.0,0015.07,0004.64,0002.92
2021-10-19 13:55:00,,0819.3,4.98,0.00,27.9,27.0,00.0,37.0,29.7,12.8,0000.0,0016.03,0004.61,0002.89
2021-10-19 13:56:00,,0819.2,5.00,0.00,27.9,27.0,00.0,37.0,29.7,12.8,0000.0,0017.48,0004.56,0002.85
2021-10-19 13:57:00,,0819.3,5.02,0.00,27.9,27.0,00.0,37.0,29.7,12.7,0000.0,0018.20,0004.61,0002.83
2021-10-19 13:58:00,,0819.2,5.00,0.00,27.9,27.0,00.0,37.0,29.7,12.7,0000.0,0017.57,0004.58,0002.81
2021-10-19 13:59:00,,0819.2,4.99,0.00,27.9,26.9,00.0,37.0,29.7,12.7,0000.0,0017.54,0004.54,0002.79
